Weather in Oni

Georgia     42°35′18″N   43°26′26″E
temp.,
°C
wind,
m/s
gust,
m/s
humid.,
%
clouds,
%
prec.,
mm/h
press.,
hPa
HPBL,
m
14 april, wed
wed1401:000ne1196100 0.1 102233
04:00−1e1196100 0.1 102115
07:000ene1295100 0.1 102148
10:00+2w1195100 0.2 1020204
13:00+5w2290100 0.4 1019638
16:00+7wnw24765 0.9 1017946
19:00+5nw11901 0.1 101820
22:000ne22915 0.1 102224
15 april, thu
thu1501:00−1ne32905 0.0 102229
04:00−2ne32874 0.0 102330
07:00−1ne328160 0.0 102334
10:00+7sw016158 0.0 1018516
13:00+10wsw235844 0.0 10171560
16:00+11wsw2348100 0.1 10161673
19:00+7nnw117999 0.0 101710
22:00+3ne2284100 0.0 102020
16 april, fri
fri1601:00+1ne228443 0.0 102115
04:00+2ne228499 0.0 102121
07:00+3ne227693 0.0 102029
10:00+10sse125264 0.0 1017647
13:00+13sw234621 0.1 10161908
16:00+13wsw244649 0.6 10161933
19:00+9sw217412 0.4 101827
22:00+4e119230 0.8 102216
17 april, sat
sat1701:00+4ene2289100 0.0 102256
04:00+4ne1188100 0.2 102128
07:00+4nnw0194100 0.7 102242
10:00+6n0190100 1.3 1021220
13:00+6sw1193100 1.0 1021242
16:00+9wnw1180100 1.2 1020525
19:00+7ne0193100 0.3 102170
22:00+6ne1194100 0.3 102229
18 april, sun
sun1801:00+5ne229381 0.0 102231
04:00+4ene329080 0.0 102136
07:00+6nne2293100 1.4 102040
10:00+6ne239693 3.9 1020106
13:00+12wsw3576100 0.4 10181062
16:00+11sw1281100 3.8 1019584
19:00+8ssw1298100 0.9 102066
22:00+8n119795 1.3 102040